Weather History for Tupelo, MS

Change the Weather History Date:

Tuesday, February 18, 2014

  Actual Average Record
Temperature  
Mean Temperature 52 °F 47 °F  
Max Temperature 70 °F 57 °F 79 °F (2000)
Min Temperature 33 °F 36 °F 6 °F (1936)
Degree Days  
Heating Degree Days 13 18  
Month to date heating degree days 454 367  
Since 1 July heating degree days 2661 2263  
Cooling Degree Days 0 0  
Month to date cooling degree days 0 0  
Year to date cooling degree days 0 1  
Growing Degree Days 2 (Base 50)    
Moisture  
Dew Point 46 °F    
Average Humidity 72    
Maximum Humidity 100    
Minimum Humidity 44    
Precipitation  
Precipitation 0.00 in 0.18 in 4.53 in (1991)
Month to date precipitation 3.50 3.04  
Year to date precipitation 5.27 7.52  
Snow  
Snow 0.00 in 0.00 in 1.00 in (1979)
Month to date snowfall 0.5 0.4  
Since 1 July snowfall 0.5 1.6  
Snow Depth 0.00 in    
Sea Level Pressure  
Sea Level Pressure 30.09 in    
Wind  
Wind Speed 8 mph (South)    
Max Wind Speed 18 mph    
Max Gust Speed 23 mph    
Visibility 5 miles    
Events Fog    
T = Trace of Precipitation, MM = Missing Value Source: NWS Daily Summary

Daily Weather History Graph

Daily Weather History Graph

Search for Another Location

Airport:

Trip Planner

Search our weather history database for the weather conditions in past years. The results will help you decide how hot, cold, wet, or windy it might be!

Date:

Astronomy

Feb. 18, 2014 Rise Set
Actual Time 6:36 AM CST 5:41 PM CST
Civil Twilight 6:11 AM CST 6:07 PM CST
Nautical Twilight 5:42 AM CST 6:36 PM CST
Astronomical Twilight 5:12 AM CST 7:05 PM CST
Moon 9:22 PM CST (2/18) 8:20 AM CST (2/18)
Length of Visible Light 11h 55m
Length of Day
11h 04m
Waning Gibbous, 87% of the Moon is Illuminated
Feb 18
Waning Gibbous
Feb 22
Last Quarter
Mar 1
New
Mar 8
First Quarter
Mar 16
Full

Hourly Weather History & Observations

Time (CST) Temp. Windchill Dew Point Humidity Pressure Visibility Wind Dir Wind Speed Gust Speed Precip Events Conditions
12:53 AM 44.1 °F 41.5 °F 43.0 °F 96% 30.14 in 9.0 mi NE 4.6 mph - N/A   Clear
1:21 AM 41.0 °F 39.0 °F 39.2 °F 93% 30.15 in 1.8 mi NNE 3.5 mph - N/A   Clear
1:31 AM 39.2 °F 35.0 °F 39.2 °F 100% 30.15 in 3.0 mi NNE 5.8 mph - N/A   Clear
1:53 AM 39.9 °F 36.7 °F 39.0 °F 97% 30.15 in 1.5 mi NNE 4.6 mph - N/A   Clear
2:05 AM 37.4 °F 32.8 °F 37.4 °F 100% 30.15 in 0.8 mi NNE 5.8 mph - N/A   Clear
2:53 AM 39.0 °F 34.0 °F 37.9 °F 96% 30.14 in 1.0 mi NE 6.9 mph - N/A   Clear
3:01 AM 39.2 °F 35.9 °F 39.2 °F 100% 30.14 in 3.0 mi NE 4.6 mph - N/A   Clear
3:14 AM 39.2 °F 34.2 °F 39.2 °F 100% 30.14 in 1.8 mi NNE 6.9 mph - N/A   Clear
3:24 AM 37.4 °F 32.8 °F 37.4 °F 100% 30.14 in 0.5 mi NE 5.8 mph - N/A Fog Fog
3:53 AM 37.0 °F 34.5 °F 37.0 °F 100% 30.14 in 0.8 mi NNE 3.5 mph - N/A   Clear
4:16 AM 37.4 °F 33.8 °F 37.4 °F 100% 30.14 in 0.2 mi NNE 4.6 mph - N/A Fog Fog
4:53 AM 39.0 °F - 39.0 °F 100% 30.15 in 0.5 mi Calm Calm - N/A Fog Fog
4:59 AM 37.4 °F - 37.4 °F 100% 30.15 in 1.2 mi Calm Calm - N/A   Partly Cloudy
5:08 AM 37.4 °F - 35.6 °F 93% 30.15 in 2.5 mi Calm Calm - N/A   Clear
5:22 AM 37.4 °F - 35.6 °F 93% 30.15 in 4.0 mi Calm Calm - N/A   Clear
5:32 AM 37.4 °F - 35.6 °F 93% 30.15 in 4.0 mi Calm Calm - N/A   Scattered Clouds
5:49 AM 37.4 °F - 35.6 °F 93% 30.15 in 1.8 mi Calm Calm - N/A   Scattered Clouds
5:53 AM 37.0 °F - 35.1 °F 93% 30.15 in 1.2 mi Calm Calm - N/A   Scattered Clouds
6:00 AM 37.4 °F - 35.6 °F 93% 30.15 in 1.0 mi Calm Calm - N/A   Mist
6:13 AM 35.6 °F 32.8 °F 33.8 °F 93% 30.15 in 0.2 mi NE 3.5 mph - N/A Fog Fog
6:49 AM 33.8 °F - 33.8 °F 100% 30.16 in 1.2 mi Calm Calm - N/A   Partly Cloudy
6:53 AM 34.0 °F - 33.1 °F 96% 30.17 in 1.5 mi Calm Calm - N/A   Partly Cloudy
7:09 AM 33.8 °F 30.8 °F 33.8 °F 100% 30.18 in 2.5 mi NNE 3.5 mph - N/A   Clear
7:29 AM 35.6 °F - 35.6 °F 100% 30.18 in 3.0 mi Calm Calm - N/A   Clear
7:42 AM 37.4 °F - 37.4 °F 100% 30.18 in 2.0 mi Calm Calm - N/A   Clear
7:53 AM 39.9 °F - 39.0 °F 97% 30.19 in 3.0 mi Calm Calm - N/A   Clear
8:53 AM 50.0 °F - 43.0 °F 77% 30.18 in 10.0 mi SE 4.6 mph - 0.01 in   Clear
9:53 AM 55.9 °F - 41.0 °F 57% 30.17 in 10.0 mi SSE 10.4 mph - N/A   Scattered Clouds
10:53 AM 60.1 °F - 42.1 °F 51% 30.16 in 10.0 mi South 8.1 mph - N/A   Mostly Cloudy
11:53 AM 64.9 °F - 43.0 °F 45% 30.12 in 10.0 mi South 5.8 mph - N/A   Scattered Clouds
12:53 PM 69.1 °F - 48.0 °F 47% 30.08 in 10.0 mi SSW 11.5 mph 20.7 mph N/A   Mostly Cloudy
1:53 PM 69.1 °F - 50.0 °F 51% 30.04 in 10.0 mi SSE 13.8 mph 19.6 mph N/A   Scattered Clouds
2:53 PM 70.0 °F - 55.0 °F 59% 30.02 in 10.0 mi South 13.8 mph 23.0 mph N/A   Partly Cloudy
3:40 PM 66.2 °F - 55.4 °F 68% 30.01 in 10.0 mi South 10.4 mph - N/A   Mostly Cloudy
3:53 PM 66.9 °F - 57.0 °F 70% 30.01 in 10.0 mi SSW 13.8 mph - N/A   Overcast
4:17 PM 66.2 °F - 57.2 °F 73% 30.00 in 10.0 mi SSW 12.7 mph - N/A   Mostly Cloudy
4:28 PM 64.4 °F - 57.2 °F 77% 29.99 in 10.0 mi SSW 12.7 mph - N/A   Mostly Cloudy
4:39 PM 64.4 °F - 57.2 °F 77% 29.99 in 10.0 mi SSW 15.0 mph 20.7 mph N/A   Mostly Cloudy
4:53 PM 64.9 °F - 57.9 °F 78% 29.99 in 10.0 mi SSW 12.7 mph - N/A   Mostly Cloudy
5:31 PM 64.4 °F - 57.2 °F 77% 29.99 in 9.0 mi SSW 13.8 mph 21.9 mph N/A   Overcast
5:53 PM 63.0 °F - 57.9 °F 84% 29.97 in 9.0 mi SSW 16.1 mph - N/A   Mostly Cloudy
6:34 PM 62.6 °F - 57.2 °F 82% 29.98 in 9.0 mi SW 12.7 mph - 0.01 in   Overcast
6:53 PM 62.1 °F - 57.9 °F 86% 29.98 in 9.0 mi SSW 10.4 mph - 0.01 in   Overcast
7:15 PM 62.6 °F - 57.2 °F 82% 29.98 in 8.0 mi SSW 9.2 mph - N/A   Overcast
7:53 PM 62.1 °F - 59.0 °F 90% 29.97 in 6.0 mi SSW 12.7 mph - N/A   Overcast
8:53 PM 61.0 °F - 59.0 °F 93% 29.96 in 4.0 mi SSW 11.5 mph - 0.01 in   Overcast
9:53 PM 61.0 °F - 59.0 °F 93% 29.96 in 4.0 mi SSW 8.1 mph - N/A   Overcast
10:14 PM 60.8 °F - 59.0 °F 94% 29.97 in 4.0 mi SSW 6.9 mph - N/A   Overcast
10:53 PM 60.1 °F - 57.9 °F 93% 29.97 in 4.0 mi SSW 8.1 mph - 0.01 in   Overcast
11:53 PM 60.1 °F - 57.9 °F 93% 29.97 in 7.0 mi SSW 8.1 mph - N/A   Overcast